Location: El Carrer d�Abaix
(41.5797°N, 2.1791°E)
Time: 23:59:39
(UTC+00:00)

STARLINK-1217 - Pass Details

Date: 06 June 2020
Orbit: 549 x 551 km, 53.0° (Epoch: 11 July)

Event Time Altitude Azimuth Distance (km) Brightness Sun altitude
Rises 21:42:13 0° 305° (NW) 2,764 8.4 -19.2°
Reaches altitude 10° 21:44:29 10° 302° (WNW) 1,869 7.2 -19.4°
Maximum altitude 21:48:41 62° 222° (SW) 645 3.8 -19.8°
Enters shadow 21:49:26 52° 175° (S) 717 3.8 -19.8°
